Flag for Germany Weather past 2 weeks in Singen (Hohentwiel), Baden-Württemberg, Germany

Now
66 °F

Clear.


Feels Like: 66 °F
Forecast: 51 / 78 °F
Wind: 1 mph from East

Location: Konstanz

Current Time: Jul 24, 2014 at 3:05:43 AM

Latest Report: Jul 24, 2014 at 2:00 AM


Visibility: 25 mi

Pressure: 29.86 "Hg

Humidity: 65%

Dew point: 54 °F

Location of Singen (Hohentwiel)Location

Historic Weather in Singen (Hohentwiel) — Graph

°F

Singen (Hohentwiel) temperature yesterday

Maximum temperature yesterday: 78 °F (at 5:00 PM)
Minimum temperature yesterday: 62 °F (at 6:00 AM)
Average temperature yesterday: 71 °F

Past Weeks' High & Low Weather Summary

 TemperatureHumidityPressure
High91 °F (Jul 19, 6:00 PM)99% (Jul 23, 4:00 AM)30.19 "Hg (Jul 23, 4:00 AM)
Low51 °F (Jul 10, 6:00 AM)14% (Jul 18, 5:00 PM)29.78 "Hg (Jul 20, 4:00 AM)
Average67 °F73%29.96 "Hg
* Reported Jul 9 2:00 AM — Jul 24 2:00 AM, Singen (Hohentwiel), Weather by CustomWeather, © 2014

Note: Actual official high and low records may vary slightly from our data, if they occured in-between our weather recording intervals... More about our weather records

Advertising

Singen (Hohentwiel) weather history for previous 24 hours

 ConditionsComfort  
Time TempWeatherWind HumidityBarometerVisibility
2:00 AM
Jul 24
66 °FClear.1 mph65%29.86 "Hg25 mi
1:00 AM68 °FClear.3 mph61%29.86 "Hg28 mi
12:00 AM69 °FClear.5 mph58%29.86 "Hg28 mi
11:00 PM
Jul 23
70 °FClear.3 mph57%29.87 "Hg28 mi
10:00 PM70 °FClear.2 mph60%29.87 "Hg25 mi
9:00 PM73 °FPartly sunny.2 mph55%29.86 "Hg22 mi
8:00 PM77 °FPartly sunny.3 mph50%29.84 "Hg22 mi
7:00 PM78 °FPartly sunny.3 mph45%29.83 "Hg19 mi
6:00 PM77 °FOvercast.6 mph47%29.84 "Hg19 mi
5:00 PM78 °FOvercast.5 mph50%29.85 "Hg19 mi
4:00 PM78 °FOvercast.6 mph49%29.86 "Hg14 mi
3:00 PM77 °FOvercast.5 mph53%29.88 "Hg12 mi
6:00 AM62 °FFog.1 mph98%29.98 "Hg0 mi
5:00 AM62 °FLow clouds.1 mph98%29.97 "Hg0 mi
4:00 AM62 °FPassing clouds.1 mph99%29.97 "Hg0 mi
3:00 AM62 °FFog.1 mph97%29.97 "Hg3 mi
Weather by CustomWeather, © 2014

See weather overviewHow to use our weather pages